KSANKBUR

Guest
Details From KSAN - San Diego Intl
To KBUR - BOB HOPE
Flight Number -
Tags generated
Created
Modified
Stats Distance 106 nm / 196 km
Max Altitude 4,200 ft / 1,280 m
Waypoints 3
Social Downloads 0
Likes 0
Share VATSIM

Download

Looking for another format? Having issues loading an existing format? Contact us
Advertisement - Login to hide

Notes

Basic altitude profile: - Ascent Rate: 2200ft/min - Ascent Speed: 250kts - Cruise Altitude: 35000ft - Cruise Speed: 420kts - Descent Rate: 2000ft/min - Descent Speed: 250kts Options: - Use NATs: yes - Use PACOTS: yes - Use low airways: yes - Use high airways: yes

Route

KSAN DODGR KBUR

ID Type Via Altitude Latitude Longitude Leg Dist Tot Dist Heading (true) Name
O KSAN APT - 0 ft / 0 m 32.73356˚ -117.18966˚ - 0 nm - San Diego Intl
DODGR FIX - 4,200 ft / 1,280 m 33.92906˚ -118.13851˚ 86 nm 86 nm 327° / 326° -
O KBUR APT - 0 ft / 0 m 34.20048˚ -118.35877˚ 19 nm 105 nm 326° / 326° BOB HOPE

Altitude Profile

Advertisement - Login to hide

KSAN

Details ICAO KSAN (SAN)
Name San Diego Intl
Region United States
Timezone America/Los_Angeles (UTC-8.0)
Stats Elevation 17 ft / 5 m (AMSL)
Location 32.733556° -117.189658°
Runways 1
Magnetic Variation 11.525° E

METAR

KSAN 131451Z 01004KT 10SM FEW008 FEW200 12/M10 A3003 RMK AO2 SLP167 FU FEW008 T01221100 53008

Decode

TAF

TAF AMD KSAN 131449Z 1315/1418 28006KT P6SM FEW250

Decode

Departure Runways

ID Width Length Bearing (true) Bearing (mag) Surface Threshold Offset Overrun Length
09 200 ft / 61 m 9,387 ft / 2,861 m 106.07° 94.54° Asphalt 699 ft / 213 m 269 ft / 82 m
27 200 ft / 61 m 9,387 ft / 2,861 m 286.08° 274.55° Asphalt 1,811 ft / 552 m 0 ft / 0 m

KBUR

Details ICAO KBUR (BUR)
Name BOB HOPE
Region United States
Timezone America/Los_Angeles (UTC-8.0)
Stats Elevation 778 ft / 237 m (AMSL)
Location 34.200475° -118.358767°
Runways 2
Magnetic Variation 12.047° E

METAR

KBUR 131453Z 00000KT 10SM CLR 10/M09 A3001 RMK AO2 SLP156 T01001089 53002 $

Decode

TAF

TAF KBUR 131147Z 1312/1412 VRB03KT P6SM SKC FM132100 18008KT P6SM SKC FM140400 VRB03KT P6SM SKC

Decode

Destination Runways

ID Width Length Bearing (true) Bearing (mag) Surface Threshold Offset Overrun Length
08 151 ft / 46 m 5,835 ft / 1,779 m 90.92° 78.87° Asphalt 0 ft / 0 m 259 ft / 79 m
15 151 ft / 46 m 6,962 ft / 2,122 m 167.12° 155.07° Asphalt 909 ft / 277 m 0 ft / 0 m
26 151 ft / 46 m 5,835 ft / 1,779 m 270.93° 258.88° Asphalt 0 ft / 0 m 253 ft / 77 m
33 151 ft / 46 m 6,962 ft / 2,122 m 347.12° 335.07° Asphalt 351 ft / 107 m 0 ft / 0 m

Approach Navaids

Runway Type Ident Frequency Range Bearing (true) Bearing (mag) Slope Elevation
08 Localiser IBUR 109.50 MHz 18 nm / 33 km 90.84° 78.79° - 726 ft / 221 m (AMSL)
08 Glidescope IBUR 109.50 MHz 10 nm / 19 km 90.93° 78.88° 3.00° 720 ft / 219 m (AMSL)

Popular Alternatives